Regional Weather Roundup
Issued by NWS Binghamton, NY

Home | Current Version | Previous Version | Text Only | Print | Product List | Glossary On
Versions: 1 2 3 4 5 6 7 8 9 10 11 12 13 14 15 16 17 18 19 20 21 22 23 24 25 26 27 28 29 30 31 32 33 34 35 36 37 38 39 40 41 42 43 44 45 46 47 48 49 50
000
ASUS41 KBGM 291610
RWRBGM

REGIONAL WEATHER ROUNDUP
NATIONAL WEATHER SERVICE BINGHAMTON NY
1200 PM EDT SUN MAY 29 2016

Note: "fair" indicates few or no clouds below 12,000 feet with no
significant weather and/or obstructions to visibility.

* = Station(s) that does not report precipitation, such as rain,
snow, etc, also no thunder or fog.

NYZ009-015>018-022>025-036-037-044>046-055>057-062-291700
...Central New York...

CITY           SKY/WX    TMP DP  RH WIND       PRES   REMARKS
Binghamton     MOSUNNY   82  66  58 S9        30.12F
Cortland       LGT RAIN  73  70  88 SW7       30.12S
Dansville      MOSUNNY   84  68  58 NE3       30.06F HX  87
Elmira         MOSUNNY   88  65  46 SW12      30.07F HX  90
Ithaca         PTSUNNY   77  67  71 E5        30.11F
Hamilton       CLOUDY    75  66  73 E10       30.11R
Hornell        MOSUNNY   84  66  54 SE3       30.11F HX  86
Monticello     MOSUNNY   84  70  61 S9        30.16F HX  88
Penn Yan       PTSUNNY   84  67  56 SW5       30.09F HX  86
Rome           PTSUNNY   83  69  62 SW5       30.06F HX  86
Sidney         LGT RAIN  75  73  94 S7        30.10F
Syracuse       PTSUNNY   86  65  49 W10       30.04F HX  88
$$

PAZ038>040-043-044-047-048-072-291700
...Northeast Pennsylvania...

CITY           SKY/WX    TMP DP  RH WIND       PRES   REMARKS
Hazleton       MOSUNNY   82  61  47 SE10      30.19F
Scranton       SUNNY     86  66  51 W8        30.11F HX  88
$$
&&
KEY
WCI = Wind Chill Index
VSB = Visibility
HX  = Heat Index
$$



USA.gov is the U.S. government's official web portal to all federal, state and local government web resources and services.